SCP
0 0 0 0 0 0 -0 -0 -0 0 -0 -0 -0 0 0 0 0 0 0 0 0 0 0 0 0 0 0 0 0 0 0 0 0 0 0 0 0 0 0 0 0 0 0
0 0 0 0 -0 -0 -0 -0 0 -0 -0 0 0 0 0 0 0 0 0 0 0 0 0 0 0 0 0 0 0 0 0 0 -0 0 0 0 0 0 0 0 0 0 0
0 0 0 0 -0 0 0 0 0 -0 -0 0 0 0 0 0 0 0 0 0 0 0 0 0 0 0 0 0 0 0 0 0 0 0 0 0 0 0 0 0 0 0 0
0 0 0 0 0 0 0 0 0 0 0 0 0 0 0 0 0 0 0 0 0 0 0 0 0 0 0 0 0 0 0 0 0 0 0 0 0 0 0 0 0 0 0
0 0 0 0 0 0 0 0 0 0 0 0 0 0 0 0 0 0 0 0 0 0 0 0 0 0 0 0 0 0 0 0 0 0 0 0 0 0 0 0 0 0 0
0 0 0 0 0 0 0 0 0 0 0 0 0 0 0 0 0 0 0 0 0 0 0 0 0 0 0 0 0 0 0 0 0 0 0 0 0 0 0 0 0 0 0
0 0 0 0 1 0 0 0 0 0 0 0 0 0 0 0 0 0 0 0 0 0 0 0 0 0 0 0 0 0 0 0 0 0 0 0 0 0 0 0 0 0 0
0 0 0 0 0 0 0 0 0 0 0 0 0 0 0 0 0 0 0 0 0 0 0 0 0 0 0 0 0 0 0 0 0 0 0 0 0 0 0 0 0 0 0
0 1 1 0 0 0 0 0 0 0 0 0 0 0 0 0 0 0 0 0 0 0 0 0 0 0 0 0 0 0 0 0 0 0 0 0 0 0 0 0 0 0 0
0 1 1 1 0 0 0 0 0 0 0 0 0 0 0 0 0 0 0 0 0 0 0 0 0 0 0 0 0 0 0 0 0 0 0 0 0 0 0 0 0 0 0
1 1 1 0 0 0 0 0 0 0 0 0 0 0 0 0 0 0 0 0 0 0 0 0 0 0 0 0 0 0 0 0 0 0 0 0 0 0 0 0 0 0 0
2 2 1 0 0 0 0 0 0 0 0 0 0 0 0 0 0 0 0 0 0 0 0 0 0 0 0 0 0 0 0 0 0 0 0 0 0 0 0 0 0 0 0
2 1 0 0 0 0 0 0 0 0 0 0 0 0 0 0 0 0 0 0 0 0 0 0 0 0 0 0 0 0 0 0 0 0 0 0 0 0 0 0 0 0 0
2 0 0 0 0 0 0 0 0 0 0 0 0 0 0 0 0 0 0 0 0 0 0 0 0 0 0 0 0 0 0 0 0 0 0 0 0 0 0 0 0 0 0
0 0 0 0 0 0 0 0 0 0 0 0 0 0 0 0 0 0 0 0 0 0 0 0 0 0 0 0 0 0 0 0 0 0 0 0 0 0 0 0 0 0 0
0 0 0 0 0 0 0 0 0 0 0 0 0 0 0 0 0 0 0 0 0 0 0 0 0 0 0 0 0 0 0 0 0 0 0 0 0 0 0 0 0 0 0
0 0 0 0 0 0 0 0 0 0 0 0 0 0 0 0 0 0 0 0 0 0 0 0 0 0 0 0 0 0 0 0 0 0 0 0 0 0 0 0 0 0 0
0 0 0 0 0 0 0 0 0 0 0 0 0 0 0 0 0 0 0 0 0 0 0 0 0 0 0 0 0 0 0 0 0 0 0 0 0 0 0 0 0 0 0
0 0 0 0 0 0 0 0 0 0 0 0 0 0 0 0 0 0 0 0 0 0 0 0 0 0 0 0 0 0 0 0 0 0 0 0 0 0 0 0 0 0 0
0 0 0 0 0 0 0 0 0 0 0 0 0 0 0 0 0 0 0 0 0 0 0 0 0 0 0 0 0 0 0 0 0 0 0 0 0 0 0 0 0 0 0
0 0 0 0 0 0 0 0 0 0 0 0 0 0 0 0 0 0 0 0 0 0 0 0 0 0 0 0 0 0 0 0 0 0 0 0 0 0 0 0 0 0 0
0 0 0 0 0 0 0 0 0 0 0 0 0 0 0 0 0 0 0 0 0 0 0 0 0 0 0 0 0 0 0 0 0 0 0 0 0 0 0 0 0 0 0
0 0 0 0 0 0 0 0 0 0 0 0 0 0 0 0 0 0 0 0 0 0 0 0 -0 -0 0 0 0 0 0 0 0 0 0 0 0 0 0 0 0 0 -0
0 0 0 0 0 0 0 0 0 0 0 0 0 0 0 0 0 0 0 0 0 0 0 0 0 0 0 0 0 0 0 0 0 0 0 0 0 0 0 0 0 0 0
0 0 0 0 0 0 -0 0 0 0 0 0 0 0 0 0 0 0 0 0 0 0 0 0 0 0 0 0 0 0 0 0 0 0 0 0 0 0 0 0 0 0 0
0 0 0 0 0 0 -0 0 0 0 0 0 0 0 0 0 0 0 0 0 0 0 0 0 0 0 0 0 0 0 0 0 0 0 0 0 0 0 0 0 0 0 0
Wind_Speed_500mb
44 36 32 30 28 30 31 26 23 17 22 15 8 2 5 12 13 17 25 30 30 21 21 24 23 21 23 27 27 28 35 42 47 50 48 49 49 50 52 55 53 43 39
41 36 33 35 36 35 32 24 20 22 18 11 7 7 15 11 18 26 24 25 17 19 21 23 27 30 31 35 31 34 48 50 56 57 50 49 54 54 56 60 63 43 40
42 45 42 43 38 32 29 25 21 21 15 15 11 9 12 12 22 26 28 22 18 23 23 28 33 31 35 34 33 41 49 56 59 57 52 59 60 60 63 64 56 47 40
46 48 44 42 36 30 31 26 31 25 19 21 18 17 16 15 20 25 24 18 21 20 18 26 27 29 34 35 37 44 50 59 60 54 56 59 58 62 68 57 57 44 40
50 45 44 41 34 29 36 32 25 29 30 26 23 17 18 15 15 16 14 16 18 18 20 23 27 29 34 37 39 41 49 53 53 54 53 47 58 56 49 51 47 38 36
52 48 46 43 41 43 41 41 38 34 28 25 23 20 20 19 14 13 15 18 17 20 25 21 26 27 28 30 30 32 35 40 41 43 46 55 65 65 55 49 48 46 46
60 55 56 51 56 50 53 47 46 40 28 19 18 18 15 20 12 13 20 14 15 17 23 33 19 17 17 22 26 29 31 34 37 44 57 64 60 50 53 52 51 51 51
62 63 60 60 60 53 51 44 46 40 29 19 16 17 13 11 11 12 4 9 12 14 10 11 17 20 20 22 28 36 36 37 46 57 62 67 72 66 61 50 45 45 45
66 67 65 63 66 57 55 47 44 36 33 22 17 12 9 10 10 9 8 6 6 10 15 21 24 25 28 30 28 27 38 48 57 62 62 57 47 42 40 40 44 46 47
65 71 71 66 66 59 55 48 40 34 32 18 17 12 11 11 8 11 14 15 19 24 24 25 25 22 19 22 30 42 51 56 55 54 44 39 43 42 42 42 42 45 49
68 74 77 71 63 58 50 48 44 41 25 14 14 13 11 5 6 7 17 18 23 22 22 18 17 19 25 34 41 44 45 51 52 58 51 48 44 44 45 46 48 51 53
75 75 83 71 61 56 53 51 48 33 19 15 17 16 12 8 7 11 18 24 23 20 4 12 17 27 36 42 41 40 44 52 58 63 55 56 56 57 60 63 57 52 48
86 81 89 73 62 57 58 56 44 30 16 14 15 11 8 7 9 14 18 20 22 13 9 16 22 37 38 38 39 42 50 55 60 54 55 56 56 63 64 63 56 50 49
89 86 89 72 62 64 64 55 40 23 19 18 14 10 8 8 14 15 17 19 15 9 18 16 35 36 35 37 42 51 57 57 53 47 44 41 48 64 64 56 49 48 39
90 91 85 72 70 70 64 49 35 25 25 20 14 9 5 7 11 15 15 15 17 11 13 20 32 36 38 41 50 55 54 51 48 41 34 25 45 63 67 64 49 48 48
99 92 84 78 77 71 58 45 35 29 25 20 12 5 1 4 8 11 13 16 16 16 12 25 29 34 39 44 43 46 49 46 45 36 29 27 45 61 67 66 54 47 51
99 97 87 84 79 68 52 42 35 31 25 18 12 5 4 6 8 12 13 13 16 18 21 24 27 32 36 40 41 46 52 50 48 36 30 34 47 59 69 82 70 54 41
100 102 94 86 73 60 52 42 37 31 21 15 11 6 4 7 9 10 10 15 19 22 25 29 32 37 43 47 50 57 57 52 47 39 39 38 50 59 71 83 70 57 35
111 97 90 80 68 61 51 44 38 31 22 16 11 7 12 12 9 8 14 19 23 26 27 30 35 39 47 56 61 62 64 58 48 46 49 53 56 65 83 77 62 44 42
93 92 83 73 66 60 55 48 38 29 22 18 13 14 15 10 12 15 19 23 24 24 27 31 37 45 55 62 69 75 68 64 62 56 57 64 66 76 91 70 41 46 46
97 88 76 68 68 61 53 46 37 29 24 22 20 19 18 17 18 19 20 24 24 25 29 36 43 52 60 67 74 69 67 72 65 66 73 80 80 84 94 49 51 49 40
88 73 76 73 69 59 50 38 31 31 30 26 21 23 23 21 20 19 22 27 27 30 34 39 45 53 56 60 59 58 65 76 71 69 75 86 79 94 91 52 51 47 46
85 90 88 78 66 58 45 38 34 31 28 28 28 26 22 24 22 21 25 24 22 22 27 32 42 48 52 51 49 54 56 64 59 63 74 89 84 99 89 54 52 52 45
96 94 85 75 65 55 46 40 33 32 35 35 33 31 28 30 29 27 23 22 25 26 29 32 37 39 35 35 37 43 54 61 64 60 73 93 88 100 89 59 62 56 43
101 91 81 74 68 57 44 41 36 40 41 40 38 37 33 31 31 32 28 29 27 30 30 33 37 32 27 29 32 42 59 69 75 66 80 81 93 106 82 64 74 66 52
96 89 80 67 60 62 51 45 38 40 43 43 42 39 38 35 36 34 36 33 33 38 37 40 37 36 36 38 38 43 52 62 69 57 80 79 92 85 61 67 75 74 59
Wind_Direction_500mb
191 185 184 179 169 163 156 156 150 128 147 132 127 285 301 328 326 338 317 318 324 316 329 344 350 352 347 339 334 335 340 343 342 340 335 332 335 336 335 336 327 312 301
189 179 172 167 158 154 159 155 139 151 155 183 174 285 296 304 311 309 305 321 328 322 325 336 338 337 339 337 333 339 343 345 343 339 338 340 339 340 338 339 338 320 306
182 175 161 158 158 164 163 166 169 179 184 183 207 235 262 286 279 290 307 322 335 337 332 335 333 333 340 340 339 338 339 339 342 338 338 340 340 336 337 337 336 329 315
180 178 174 168 169 177 185 187 192 188 199 213 210 211 235 269 301 299 305 318 338 348 360 353 347 334 335 335 335 334 337 333 337 337 334 334 336 336 334 335 336 330 322
188 184 184 174 180 180 182 179 191 211 225 222 223 223 241 268 306 315 318 320 340 348 347 322 341 321 320 326 333 338 331 332 334 332 330 331 331 333 333 332 329 317 312
191 193 194 191 196 188 191 200 217 224 222 230 234 235 247 260 278 304 322 314 339 344 328 319 334 331 327 327 338 333 325 323 319 324 324 323 325 327 330 328 321 322 320
195 193 196 202 203 202 208 218 223 222 226 231 237 229 245 240 254 288 299 304 317 312 299 307 324 319 313 314 315 316 317 310 312 318 320 321 325 324 321 320 320 315 316
202 199 198 203 203 203 209 219 218 221 218 204 185 196 187 197 222 317 175 262 298 287 297 335 343 331 319 322 324 319 315 315 315 314 316 315 314 312 312 317 317 316 315
204 203 202 207 203 203 212 220 219 216 200 192 197 197 181 190 172 120 176 245 283 304 317 311 318 319 323 326 325 319 319 321 323 321 320 320 322 327 327 325 318 316 314
206 205 205 206 206 210 219 224 214 207 203 202 190 203 201 199 184 187 212 275 304 321 328 321 334 346 352 340 332 327 329 330 328 326 328 330 328 328 324 319 315 313 312
206 206 205 207 209 214 219 215 204 202 195 204 215 193 202 205 267 264 283 276 306 326 332 321 334 336 337 332 329 332 331 330 330 330 321 320 324 329 326 320 318 315 313
201 206 204 205 209 212 206 196 196 198 197 201 198 201 219 233 264 298 295 306 321 338 358 306 327 323 323 324 327 323 326 328 330 326 323 321 326 327 323 319 319 316 315
199 202 203 201 204 202 196 194 197 193 193 195 203 225 255 296 310 292 298 303 314 329 343 289 329 330 324 325 323 322 321 323 324 322 318 322 335 336 332 327 325 317 312
198 202 201 201 199 196 194 195 194 191 181 191 199 224 258 300 304 300 306 316 323 295 334 329 334 332 333 327 321 321 324 326 324 321 321 337 346 350 343 339 329 326 321
200 200 197 195 195 194 194 191 188 180 182 182 192 210 271 299 312 320 325 327 337 332 337 328 342 334 327 328 329 331 334 334 329 326 322 335 351 360 351 339 327 316 308
203 197 192 192 190 191 189 186 180 180 181 180 173 183 234 336 337 328 336 339 350 356 2 342 345 331 332 333 338 341 347 341 340 341 323 339 357 357 349 344 332 311 301
198 191 189 188 189 187 185 184 180 177 183 167 154 137 72 12 348 350 357 357 7 8 4 1 352 352 352 349 350 355 357 355 349 347 352 346 353 351 348 350 341 326 301
194 187 183 186 185 187 179 182 179 175 166 152 125 103 64 46 31 24 20 14 13 15 9 7 1 1 2 358 358 356 359 5 356 359 356 354 352 352 353 348 340 332 294
187 183 183 182 184 178 176 174 172 160 152 132 118 97 74 64 47 39 20 13 16 20 20 15 9 360 1 0 355 356 -0 1 359 359 2 1 353 356 355 342 335 337 334
180 179 178 177 177 176 171 165 161 154 145 129 109 87 83 73 48 26 24 21 20 19 23 16 3 3 2 358 355 355 356 359 1 3 3 3 358 360 354 345 340 335 324
175 168 168 171 173 171 166 161 154 145 133 113 102 92 82 63 48 30 25 27 22 24 19 12 9 2 357 354 353 354 353 353 2 1 356 0 358 357 358 355 349 341 322
166 174 168 169 169 165 162 155 148 139 121 109 99 81 72 59 45 37 37 40 39 32 22 11 2 359 355 348 350 353 352 356 359 3 354 352 357 356 359 360 351 345 333
162 164 164 169 166 158 155 143 138 127 117 110 100 91 84 74 65 57 53 53 50 34 15 1 359 357 349 351 349 347 355 356 359 2 356 347 356 351 358 3 358 351 346
162 162 160 161 156 147 143 134 130 122 115 105 97 88 83 80 68 58 55 51 41 29 19 6 2 354 359 352 347 350 354 355 359 10 360 350 353 347 355 3 3 360 355
158 154 155 154 148 141 138 132 130 125 116 109 100 91 83 79 71 61 54 48 38 31 25 14 5 10 13 1 352 354 6 4 357 4 358 353 350 348 349 357 1 3 5
151 150 146 148 139 131 129 125 126 118 112 107 100 93 83 72 63 52 44 39 33 26 22 16 21 23 20 18 17 18 14 8 4 358 -0 349 350 351 337 344 360 4 8
Wind_Speed_850mb
44 36 32 30 28 30 31 26 23 17 22 15 8 2 5 12 13 17 25 30 30 21 21 24 23 21 23 27 27 28 35 42 47 50 48 49 49 50 52 55 53 43 39
41 36 33 35 36 35 32 24 20 22 18 11 7 7 15 11 18 26 24 25 17 19 21 23 27 30 31 35 31 34 48 50 56 57 50 49 54 54 56 60 63 43 40
42 45 42 43 38 32 29 25 21 21 15 15 11 9 12 12 22 26 28 22 18 23 23 28 33 31 35 34 33 41 49 56 59 57 52 59 60 60 63 64 56 47 40
46 48 44 42 36 30 31 26 31 25 19 21 18 17 16 15 20 25 24 18 21 20 18 26 27 29 34 35 37 44 50 59 60 54 56 59 58 62 68 57 57 44 40
50 45 44 41 34 29 36 32 25 29 30 26 23 17 18 15 15 16 14 16 18 18 20 23 27 29 34 37 39 41 49 53 53 54 53 47 58 56 49 51 47 38 36
52 48 46 43 41 43 41 41 38 34 28 25 23 20 20 19 14 13 15 18 17 20 25 21 26 27 28 30 30 32 35 40 41 43 46 55 65 65 55 49 48 46 46
60 55 56 51 56 50 53 47 46 40 28 19 18 18 15 20 12 13 20 14 15 17 23 33 19 17 17 22 26 29 31 34 37 44 57 64 60 50 53 52 51 51 51
62 63 60 60 60 53 51 44 46 40 29 19 16 17 13 11 11 12 4 9 12 14 10 11 17 20 20 22 28 36 36 37 46 57 62 67 72 66 61 50 45 45 45
66 67 65 63 66 57 55 47 44 36 33 22 17 12 9 10 10 9 8 6 6 10 15 21 24 25 28 30 28 27 38 48 57 62 62 57 47 42 40 40 44 46 47
65 71 71 66 66 59 55 48 40 34 32 18 17 12 11 11 8 11 14 15 19 24 24 25 25 22 19 22 30 42 51 56 55 54 44 39 43 42 42 42 42 45 49
68 74 77 71 63 58 50 48 44 41 25 14 14 13 11 5 6 7 17 18 23 22 22 18 17 19 25 34 41 44 45 51 52 58 51 48 44 44 45 46 48 51 53
75 75 83 71 61 56 53 51 48 33 19 15 17 16 12 8 7 11 18 24 23 20 4 12 17 27 36 42 41 40 44 52 58 63 55 56 56 57 60 63 57 52 48
86 81 89 73 62 57 58 56 44 30 16 14 15 11 8 7 9 14 18 20 22 13 9 16 22 37 38 38 39 42 50 55 60 54 55 56 56 63 64 63 56 50 49
89 86 89 72 62 64 64 55 40 23 19 18 14 10 8 8 14 15 17 19 15 9 18 16 35 36 35 37 42 51 57 57 53 47 44 41 48 64 64 56 49 48 39
90 91 85 72 70 70 64 49 35 25 25 20 14 9 5 7 11 15 15 15 17 11 13 20 32 36 38 41 50 55 54 51 48 41 34 25 45 63 67 64 49 48 48
99 92 84 78 77 71 58 45 35 29 25 20 12 5 1 4 8 11 13 16 16 16 12 25 29 34 39 44 43 46 49 46 45 36 29 27 45 61 67 66 54 47 51
99 97 87 84 79 68 52 42 35 31 25 18 12 5 4 6 8 12 13 13 16 18 21 24 27 32 36 40 41 46 52 50 48 36 30 34 47 59 69 82 70 54 41
100 102 94 86 73 60 52 42 37 31 21 15 11 6 4 7 9 10 10 15 19 22 25 29 32 37 43 47 50 57 57 52 47 39 39 38 50 59 71 83 70 57 35
111 97 90 80 68 61 51 44 38 31 22 16 11 7 12 12 9 8 14 19 23 26 27 30 35 39 47 56 61 62 64 58 48 46 49 53 56 65 83 77 62 44 42
93 92 83 73 66 60 55 48 38 29 22 18 13 14 15 10 12 15 19 23 24 24 27 31 37 45 55 62 69 75 68 64 62 56 57 64 66 76 91 70 41 46 46
97 88 76 68 68 61 53 46 37 29 24 22 20 19 18 17 18 19 20 24 24 25 29 36 43 52 60 67 74 69 67 72 65 66 73 80 80 84 94 49 51 49 40
88 73 76 73 69 59 50 38 31 31 30 26 21 23 23 21 20 19 22 27 27 30 34 39 45 53 56 60 59 58 65 76 71 69 75 86 79 94 91 52 51 47 46
85 90 88 78 66 58 45 38 34 31 28 28 28 26 22 24 22 21 25 24 22 22 27 32 42 48 52 51 49 54 56 64 59 63 74 89 84 99 89 54 52 52 45
96 94 85 75 65 55 46 40 33 32 35 35 33 31 28 30 29 27 23 22 25 26 29 32 37 39 35 35 37 43 54 61 64 60 73 93 88 100 89 59 62 56 43
101 91 81 74 68 57 44 41 36 40 41 40 38 37 33 31 31 32 28 29 27 30 30 33 37 32 27 29 32 42 59 69 75 66 80 81 93 106 82 64 74 66 52
96 89 80 67 60 62 51 45 38 40 43 43 42 39 38 35 36 34 36 33 33 38 37 40 37 36 36 38 38 43 52 62 69 57 80 79 92 85 61 67 75 74 59
Wind_Direction_850mb
191 185 184 179 169 163 156 156 150 128 147 132 127 285 301 328 326 338 317 318 324 316 329 344 350 352 347 339 334 335 340 343 342 340 335 332 335 336 335 336 327 312 301
189 179 172 167 158 154 159 155 139 151 155 183 174 285 296 304 311 309 305 321 328 322 325 336 338 337 339 337 333 339 343 345 343 339 338 340 339 340 338 339 338 320 306
182 175 161 158 158 164 163 166 169 179 184 183 207 235 262 286 279 290 307 322 335 337 332 335 333 333 340 340 339 338 339 339 342 338 338 340 340 336 337 337 336 329 315
180 178 174 168 169 177 185 187 192 188 199 213 210 211 235 269 301 299 305 318 338 348 360 353 347 334 335 335 335 334 337 333 337 337 334 334 336 336 334 335 336 330 322
188 184 184 174 180 180 182 179 191 211 225 222 223 223 241 268 306 315 318 320 340 348 347 322 341 321 320 326 333 338 331 332 334 332 330 331 331 333 333 332 329 317 312
191 193 194 191 196 188 191 200 217 224 222 230 234 235 247 260 278 304 322 314 339 344 328 319 334 331 327 327 338 333 325 323 319 324 324 323 325 327 330 328 321 322 320
195 193 196 202 203 202 208 218 223 222 226 231 237 229 245 240 254 288 299 304 317 312 299 307 324 319 313 314 315 316 317 310 312 318 320 321 325 324 321 320 320 315 316
202 199 198 203 203 203 209 219 218 221 218 204 185 196 187 197 222 317 175 262 298 287 297 335 343 331 319 322 324 319 315 315 315 314 316 315 314 312 312 317 317 316 315
204 203 202 207 203 203 212 220 219 216 200 192 197 197 181 190 172 120 176 245 283 304 317 311 318 319 323 326 325 319 319 321 323 321 320 320 322 327 327 325 318 316 314
206 205 205 206 206 210 219 224 214 207 203 202 190 203 201 199 184 187 212 275 304 321 328 321 334 346 352 340 332 327 329 330 328 326 328 330 328 328 324 319 315 313 312
206 206 205 207 209 214 219 215 204 202 195 204 215 193 202 205 267 264 283 276 306 326 332 321 334 336 337 332 329 332 331 330 330 330 321 320 324 329 326 320 318 315 313
201 206 204 205 209 212 206 196 196 198 197 201 198 201 219 233 264 298 295 306 321 338 358 306 327 323 323 324 327 323 326 328 330 326 323 321 326 327 323 319 319 316 315
199 202 203 201 204 202 196 194 197 193 193 195 203 225 255 296 310 292 298 303 314 329 343 289 329 330 324 325 323 322 321 323 324 322 318 322 335 336 332 327 325 317 312
198 202 201 201 199 196 194 195 194 191 181 191 199 224 258 300 304 300 306 316 323 295 334 329 334 332 333 327 321 321 324 326 324 321 321 337 346 350 343 339 329 326 321
200 200 197 195 195 194 194 191 188 180 182 182 192 210 271 299 312 320 325 327 337 332 337 328 342 334 327 328 329 331 334 334 329 326 322 335 351 360 351 339 327 316 308
203 197 192 192 190 191 189 186 180 180 181 180 173 183 234 336 337 328 336 339 350 356 2 342 345 331 332 333 338 341 347 341 340 341 323 339 357 357 349 344 332 311 301
198 191 189 188 189 187 185 184 180 177 183 167 154 137 72 12 348 350 357 357 7 8 4 1 352 352 352 349 350 355 357 355 349 347 352 346 353 351 348 350 341 326 301
194 187 183 186 185 187 179 182 179 175 166 152 125 103 64 46 31 24 20 14 13 15 9 7 1 1 2 358 358 356 359 5 356 359 356 354 352 352 353 348 340 332 294
187 183 183 182 184 178 176 174 172 160 152 132 118 97 74 64 47 39 20 13 16 20 20 15 9 360 1 0 355 356 -0 1 359 359 2 1 353 356 355 342 335 337 334
180 179 178 177 177 176 171 165 161 154 145 129 109 87 83 73 48 26 24 21 20 19 23 16 3 3 2 358 355 355 356 359 1 3 3 3 358 360 354 345 340 335 324
175 168 168 171 173 171 166 161 154 145 133 113 102 92 82 63 48 30 25 27 22 24 19 12 9 2 357 354 353 354 353 353 2 1 356 0 358 357 358 355 349 341 322
166 174 168 169 169 165 162 155 148 139 121 109 99 81 72 59 45 37 37 40 39 32 22 11 2 359 355 348 350 353 352 356 359 3 354 352 357 356 359 360 351 345 333
162 164 164 169 166 158 155 143 138 127 117 110 100 91 84 74 65 57 53 53 50 34 15 1 359 357 349 351 349 347 355 356 359 2 356 347 356 351 358 3 358 351 346
162 162 160 161 156 147 143 134 130 122 115 105 97 88 83 80 68 58 55 51 41 29 19 6 2 354 359 352 347 350 354 355 359 10 360 350 353 347 355 3 3 360 355
158 154 155 154 148 141 138 132 130 125 116 109 100 91 83 79 71 61 54 48 38 31 25 14 5 10 13 1 352 354 6 4 357 4 358 353 350 348 349 357 1 3 5
151 150 146 148 139 131 129 125 126 118 112 107 100 93 83 72 63 52 44 39 33 26 22 16 21 23 20 18 17 18 14 8 4 358 -0 349 350 351 337 344 360 4 8